(72743) = 2001 FS115 = 1977 RV10 = 1998 SD86

Discovered at Socorro on 2001-03-19 by LINEAR.

Orbit

Orbit type: Main Belt

Note: WebGL enabled browser required.

epoch2023-09-13.0
epoch JD2460200.5
perihelion date2019-05-30.01114
perihelion JD2458633.51114
argument of perihelion (°)339.40623
ascending node (°)6.68072
inclination (°)10.22622
eccentricity0.0534104
perihelion distance (AU)2.8516032
Tisserand w.r.t. Jupiter3.2
ΔV w.r.t. Earth (km/sec)11.0
semimajor axis (AU)3.0125023
mean anomaly (°)295.37837
mean daily motion (°/day)0.18850060
aphelion distance (AU)3.173
period (years)5.23
P-vector [x]0.97001169
P-vector [y]-0.19067644
P-vector [z]-0.15073092
Q-vector [x]0.24217914
Q-vector [y]0.81090736
Q-vector [z]0.53270866
absolute magnitude14.91
phase slope0.15
uncertainty0
referenceMPEC 2023-W66
observations used873
oppositions19
arc length (days)16351
first opposition used1977
last opposition used2022
residual rms (arc-secs)0.76
perturbers coarse indicatorM-v
perturbers precise indicator003Ek
first observation date used1977-09-09.0
last observation date used2022-06-16.0
computer nameMPCLINUX
JD of orbit computation2456966.861979
perihelion JD uncertainty (days)3.4069E-04
argument of perihelion uncertainty (°)7.0543E-05
ascending node uncertainty (°)3.0478E-05
inclination uncertainty (°)9.4166E-06
eccentricity uncertainty 7.3382E-08
perihelion distance uncertainty (AU)2.1845E-07
Minimum Orbit Intersection Distances (in AU)
for orbit epoch: 2460200.5, reference: E2023-W66
Mercury2.45021
Venus2.12425
Earth1.84725
Mars1.46271
Jupiter2.08911
Saturn6.05546
Uranus15.2774
Neptune26.9587

Observations

896 total observations over interval: 1977 09 09.40313 – 2022 06 16.198236
These data are available for download (format description).

Date (UT) J2000 RA J2000 Dec Magn Location Ref
1977 09 09.40313 00 06 29.44 -02 51 27.0   675 – Palomar Mountain MPC 17882
1977 09 10.28316 00 05 46.46 -02 53 08.3 20.0   675 – Palomar Mountain MPC 17882
1993 10 09.32807 01 42 51.92 +15 47 52.2 18.7 V 691 – Steward Observatory, Kitt Peak-Spacewatch MPS 29593
1993 10 09.37184 01 42 49.54 +15 47 48.6   691 – Steward Observatory, Kitt Peak-Spacewatch MPS 29593
1993 10 09.41614 01 42 47.19 +15 47 47.1   691 – Steward Observatory, Kitt Peak-Spacewatch MPS 29593
1998 09 25.22925 00 25 34.04 +02 09 22.6 18.1 R 699 – Lowell Observatory-LONEOS MPS 54615
1998 09 25.25159 00 25 32.92 +02 09 19.4   699 – Lowell Observatory-LONEOS MPS 54615
1998 09 25.27395 00 25 31.65 +02 09 18.0   699 – Lowell Observatory-LONEOS MPS 54615
1998 09 26.13827 00 24 46.57 +02 07 42.5 18.4   704 – Lincoln Laboratory ETS, New Mexico MPS 2746
1998 09 26.15476 00 24 45.68 +02 07 39.4 18.7   704 – Lincoln Laboratory ETS, New Mexico MPS 2746
1998 09 26.18807 00 24 43.89 +02 07 35.4 18.7   704 – Lincoln Laboratory ETS, New Mexico MPS 2746
1998 09 26.20462 00 24 42.98 +02 07 32.8 18.7   704 – Lincoln Laboratory ETS, New Mexico MPS 2746
1998 09 27.29406 00 23 45.77 +02 05 34.5 18.5   704 – Lincoln Laboratory ETS, New Mexico MPS 2746
1998 09 27.31155 00 23 44.84 +02 05 31.2 18.8   704 – Lincoln Laboratory ETS, New Mexico MPS 2746
1998 09 27.32954 00 23 43.86 +02 05 31.0 19.0   704 – Lincoln Laboratory ETS, New Mexico MPS 2746
1998 09 27.34697 00 23 42.85 +02 05 28.4 19.5   704 – Lincoln Laboratory ETS, New Mexico MPS 2746
1998 09 27.36487 00 23 41.91 +02 05 26.7 19.5   704 – Lincoln Laboratory ETS, New Mexico MPS 2746
1999 12 13.28213 06 43 16.08 +37 53 08.1 18.6   704 – Lincoln Laboratory ETS, New Mexico MPS 29593
1999 12 13.31128 06 43 14.48 +37 53 12.3 19.3   704 – Lincoln Laboratory ETS, New Mexico MPS 29593
1999 12 13.32591 06 43 13.55 +37 53 14.6 19.4   704 – Lincoln Laboratory ETS, New Mexico MPS 29593
1999 12 13.34050 06 43 12.66 +37 53 17.5 19.5   704 – Lincoln Laboratory ETS, New Mexico MPS 29593
1999 12 30.22495 06 25 42.63 +38 19 34.6 18.7   704 – Lincoln Laboratory ETS, New Mexico MPS 29593
1999 12 30.23956 06 25 41.74 +38 19 34.3 19.7   704 – Lincoln Laboratory ETS, New Mexico MPS 29593
1999 12 30.25411 06 25 40.68 +38 19 35.7 19.4   704 – Lincoln Laboratory ETS, New Mexico MPS 29593
1999 12 30.28314 06 25 38.76 +38 19 35.8 19.7   704 – Lincoln Laboratory ETS, New Mexico MPS 29593
2001 02 20.446710 11 50 30.914 +06 09 04.33 19.76 V 645 – Apache Point-Sloan Digital Sky Survey MPS 79857
2001 02 20.450182 11 50 30.767 +06 09 04.88 20.52   645 – Apache Point-Sloan Digital Sky Survey MPS 79857
2001 03 03.31728 11 42 24.25 +06 39 15.9 18.9   704 – Lincoln Laboratory ETS, New Mexico MPS 28478
2001 03 03.33040 11 42 23.53 +06 39 19.8 19.2   704 – Lincoln Laboratory ETS, New Mexico MPS 28478
2001 03 03.34353 11 42 22.90 +06 39 21.6 19.1   704 – Lincoln Laboratory ETS, New Mexico MPS 28478
2001 03 03.35666 11 42 22.25 +06 39 23.2 19.0   704 – Lincoln Laboratory ETS, New Mexico MPS 28478
2001 03 19.26223 11 29 02.88 +07 22 52.9 19.1   704 – Lincoln Laboratory ETS, New Mexico MPS 28478
2001 03 19.26629 11 29 02.70 +07 22 55.3 19.3   704 – Lincoln Laboratory ETS, New Mexico MPS 28478
2001 03 19.27518 11 29 02.22 +07 22 56.0 19.1   704 – Lincoln Laboratory ETS, New Mexico MPS 28478
2001 03 19.29418 11 29 01.20 +07 22 58.8 19.6   704 – Lincoln Laboratory ETS, New Mexico MPS 28478
2001 03 19.30112 11 29 00.84 +07 22 58.7 19.4   704 – Lincoln Laboratory ETS, New Mexico MPS 28478
2001 03 19.30736 11 29 00.52 +07 23 00.0 19.3   704 – Lincoln Laboratory ETS, New Mexico MPS 28478
2001 03 20.38381 11 28 06.84 +07 25 32.6 20.5   608 – Haleakala-AMOS MPS 28478
2001 03 20.39422 11 28 06.29 +07 25 34.6 20.2   608 – Haleakala-AMOS MPS 28478
2001 03 20.40515 11 28 05.74 +07 25 35.7 20.6   608 – Haleakala-AMOS MPS 28478
2003 08 23.29184 23 24 15.76 -11 22 07.1 19.1   704 – Lincoln Laboratory ETS, New Mexico MPS 83316
2003 08 23.31711 23 24 14.60 -11 22 13.2 19.6   704 – Lincoln Laboratory ETS, New Mexico MPS 83316
2003 08 23.32964 23 24 14.11 -11 22 12.9 19.4   704 – Lincoln Laboratory ETS, New Mexico MPS 83316
2003 08 23.33439 23 24 13.79 -11 22 14.4 18.4   644 – Palomar Mountain/NEAT MPS 83316
2003 08 23.34238 23 24 13.36 -11 22 14.7 19.2   704 – Lincoln Laboratory ETS, New Mexico MPS 83316
2003 08 23.36731 23 24 12.25 -11 22 18.8 18.2   644 – Palomar Mountain/NEAT MPS 83316
2003 08 23.40925 23 24 10.28 -11 22 24.5 18.4   644 – Palomar Mountain/NEAT MPS 83316
2003 08 26.30710 23 21 56.05 -11 29 03.8 18.7   704 – Lincoln Laboratory ETS, New Mexico MPS 83316
2003 08 26.31997 23 21 55.38 -11 29 04.8 19.0   704 – Lincoln Laboratory ETS, New Mexico MPS 83316
2003 08 26.33240 23 21 54.76 -11 29 07.4 18.8   704 – Lincoln Laboratory ETS, New Mexico MPS 83316
2003 08 26.34566 23 21 54.11 -11 29 08.6 18.8   704 – Lincoln Laboratory ETS, New Mexico MPS 83316
2003 08 27.28377 23 21 09.34 -11 31 18.4 18.5   644 – Palomar Mountain/NEAT MPS 83316
2003 08 27.34759 23 21 06.19 -11 31 27.5 18.4   644 – Palomar Mountain/NEAT MPS 83316
2003 08 27.41554 23 21 02.81 -11 31 36.7 18.6   644 – Palomar Mountain/NEAT MPS 83316
2003 09 01.25069 23 17 02.41 -11 42 28.7 18.4   704 – Lincoln Laboratory ETS, New Mexico MPS 84011
2003 09 01.26252 23 17 01.74 -11 42 29.7 18.8   704 – Lincoln Laboratory ETS, New Mexico MPS 84011
2003 09 01.27435 23 17 01.16 -11 42 31.2 19.0   704 – Lincoln Laboratory ETS, New Mexico MPS 84011
2003 09 01.28616 23 17 00.51 -11 42 32.7 18.9   704 – Lincoln Laboratory ETS, New Mexico MPS 84011
2003 09 01.29806 23 16 59.93 -11 42 34.5 19.1   704 – Lincoln Laboratory ETS, New Mexico MPS 84011
2003 09 13.42542 23 06 26.58 -12 04 59.6 20.0   608 – Haleakala-AMOS MPS 84509
2003 09 13.43638 23 06 25.93 -12 04 59.9 20.1   608 – Haleakala-AMOS MPS 84509
2003 09 13.44709 23 06 25.37 -12 05 01.3 19.2   608 – Haleakala-AMOS MPS 84509
2003 09 17.19152 23 03 12.98 -12 09 44.1 18.8 R 699 – Lowell Observatory-LONEOS MPS 85167
2003 09 17.20982 23 03 12.07 -12 09 44.9   699 – Lowell Observatory-LONEOS MPS 85167
2003 09 17.22816 23 03 11.11 -12 09 45.0   699 – Lowell Observatory-LONEOS MPS 85167
2003 09 17.24644 23 03 10.12 -12 09 46.0   699 – Lowell Observatory-LONEOS MPS 85167
2003 09 17.25261 23 03 09.84 -12 09 47.6 18.6   704 – Lincoln Laboratory ETS, New Mexico MPS 84509
2003 09 17.26569 23 03 09.18 -12 09 47.9 19.0   704 – Lincoln Laboratory ETS, New Mexico MPS 84509
2003 09 17.27791 23 03 08.55 -12 09 47.1 18.9   704 – Lincoln Laboratory ETS, New Mexico MPS 84509
2003 09 17.29001 23 03 07.88 -12 09 48.9 19.1   704 – Lincoln Laboratory ETS, New Mexico MPS 84509
2003 09 18.18791 23 02 22.77 -12 10 44.2 18.7 R 699 – Lowell Observatory-LONEOS MPS 85167
2003 09 18.20627 23 02 21.87 -12 10 45.3   699 – Lowell Observatory-LONEOS MPS 85167
2003 09 18.22465 23 02 20.91 -12 10 46.9   699 – Lowell Observatory-LONEOS MPS 85167
2003 09 18.24283 23 02 19.94 -12 10 47.7   699 – Lowell Observatory-LONEOS MPS 85167
2003 09 18.29729 23 02 17.44 -12 10 49.6 20.0   608 – Haleakala-AMOS MPS 86174
2003 09 18.30777 23 02 16.89 -12 10 50.3 20.3   608 – Haleakala-AMOS MPS 86174
2003 09 18.31870 23 02 16.26 -12 10 51.5 19.7   608 – Haleakala-AMOS MPS 86174
2003 09 23.42905 22 58 07.75 -12 14 21.4 19.7   608 – Haleakala-AMOS MPS 85167
2003 09 23.44001 22 58 07.23 -12 14 21.7 19.8   608 – Haleakala-AMOS MPS 85167
2003 09 23.45079 22 58 06.72 -12 14 21.9 19.7   608 – Haleakala-AMOS MPS 85167
2003 09 24.37661 22 57 23.89 -12 14 41.4 19.7   608 – Haleakala-AMOS MPS 85167
2003 09 24.38755 22 57 23.35 -12 14 41.2 19.7   608 – Haleakala-AMOS MPS 85167
2003 09 24.39824 22 57 22.81 -12 14 41.4 19.6   608 – Haleakala-AMOS MPS 85167
2003 09 28.17036 22 54 35.91 -12 14 54.4 19.3   704 – Lincoln Laboratory ETS, New Mexico MPS 86174
2003 09 28.18334 22 54 35.26 -12 14 54.8 19.7   704 – Lincoln Laboratory ETS, New Mexico MPS 86174
2003 09 28.19633 22 54 34.71 -12 14 55.2 19.4   704 – Lincoln Laboratory ETS, New Mexico MPS 86174
2003 09 28.20978 22 54 34.14 -12 14 54.5 19.1   704 – Lincoln Laboratory ETS, New Mexico MPS 86174
2003 09 28.22238 22 54 33.60 -12 14 54.7 19.3   704 – Lincoln Laboratory ETS, New Mexico MPS 86174
